This is the latest recevied weather packets stored in our database for station/object HOWARD. If no packets are shown the sender has not sent any weather packets the latest 10 day(s).
| Time | Temp. | Humidity | Pressure | Rain* | Wind** | Luminosity | Snow |
|---|---|---|---|---|---|---|---|
| 1777819905 | 8.33° C | 48% | 1014.3 hPa | 0 mm | - | - | - |
| 1777816905 | 7.78° C | 52% | 1014.2 hPa | 0 mm | - | - | - |
| 1777816305 | 7.22° C | 51% | 1014.3 hPa | 0 mm | - | - | - |
| 1777815705 | 7.22° C | 51% | 1014.3 hPa | 0 mm | - | - | - |
| 1777815105 | 7.22° C | 51% | 1014.2 hPa | 0 mm | - | - | - |
| 1777814505 | 6.67° C | 53% | 1014.2 hPa | 0 mm | - | - | - |
| 1777813905 | 6.67° C | 56% | 1014.2 hPa | 0 mm | - | - | - |
| 1777813339 | 6.11° C | 56% | 1014.2 hPa | 0 mm | - | - | - |
| 1777813305 | 6.11° C | 56% | 1014.2 hPa | 0 mm | - | - | - |
| 1777812705 | 6.11° C | 57% | 1014.2 hPa | 0 mm | - | - | - |
| 1777812105 | 6.11° C | 58% | 1014.2 hPa | 0 mm | - | - | - |
| 1777811505 | 6.11° C | 57% | 1014.1 hPa | 0 mm | - | - | - |
| 1777810940 | 5.56° C | 55% | 1014.1 hPa | 0 mm | - | - | - |
| 1777810905 | 5.56° C | 55% | 1014.1 hPa | 0 mm | - | - | - |
| 1777810305 | 5.56° C | 55% | 1014.3 hPa | 0 mm | - | - | - |
| 1777809705 | 6.11° C | 55% | 1014.4 hPa | 0 mm | - | - | - |
| 1777809105 | 6.11° C | 55% | 1014.3 hPa | 0 mm | - | - | - |
| 1777808505 | 6.11° C | 54% | 1014.5 hPa | 0 mm | - | - | - |
| 1777807905 | 6.11° C | 54% | 1014.4 hPa | 0 mm | - | - | - |
| 1777807305 | 6.67° C | 55% | 1014.6 hPa | 0 mm | - | - | - |
| 1777806705 | 6.67° C | 54% | 1014.7 hPa | 0 mm | - | - | - |
| 1777806105 | 6.67° C | 52% | 1014.7 hPa | 0 mm | - | - | - |
| 1777805505 | 6.11° C | 49% | 1014.6 hPa | 0 mm | - | - | - |
| 1777804905 | 6.67° C | 55% | 1014.5 hPa | 0 mm | - | - | - |
| 1777804305 | 6.67° C | 53% | 1014.7 hPa | 0 mm | - | - | - |
* Rain latest hour (hover to see other rain measurements)
** Current wind speed in m/s (hover to see current wind gust speed)